TabletSat-Aurora

operational
NORAD ID: 40017 Int'l Des: 2014-033 Owner: SPUT Country: RU
LEOCIRCULARRETROGRADE

Über TabletSat-Aurora

Beschreibung wird geladen...

Live-Position

3D-Globus wird geladen...

Nächste Überflüge

Höhenverlauf

Altitude vs Time

uPlot chart will show altitude changes over time

Zweizeiliger Elementsatz

1 40017U 14033H 26061.16280729 .00007217 00000-0 37867-3 0 9994
2 40017 98.0358 129.0151 0011285 215.7685 144.2792 15.16027588638983
Epoch: 2. März 2026 • Age: 41 hours

Aktueller Status

Höhe 519.0 km
Geschwindigkeit 7.61 km/s
Subsatellitenpunkt -23.43°S, 112.86°W
Startdatum 19. Juni 2014
Alter 11.7 years
Typ other

Technische Details

Klassifizierung Payload
Masse 25.00 kg
Trockenmasse 25.00 kg
Gesamtmasse 25.00 kg
Länge 0.40 m
Durchmesser 0.42 m
Spannweite 1.20 m
Form Hex Cyl + 6 pan
Hersteller SPUT
Bus-Typ Tabletsat-2U-EO
Phasenstatus In Orbit
Besitzer/Staat SPUT/RU

Große Konstellationen

Loading constellations...